Home   Weather   Chico   Past weeks

Flag for USA Past Weather in Chico, California, USA — Yesterday and Last 2 Weeks

Now
75 °F

Sunny.


Feels Like: 78 °F
Forecast: 56 / 85 °F
Wind: 8 mph from Southeast

Location: Chico Municipal

Current Time: May 26, 2017 at 7:25:14 pm

Latest Report: May 26, 2017 at 6:35 pm


Visibility: 10 mi

Pressure: 29.93 "Hg

Humidity: 41%

Dew Point: 50 °F

Location of ChicoLocation

Past Weather in Chico — Graph

°F

Chico Temperature Yesterday

Maximum temperature yesterday: 73 °F (at 2:50 pm)
Minimum temperature yesterday: 54 °F (at 5:35 am)
Average temperature yesterday: 65 °F

High & Low Weather Summary for the Past Weeks

 TemperatureHumidityPressure
High99 °F (May 22, 2:55 pm)94% (May 17, 5:35 am)30.14 "Hg (May 17, 5:35 am)
Low45 °F (May 13, 5:15 am)11% (May 18, 5:35 pm)29.57 "Hg (May 24, 6:35 pm)
Average69 °F41%29.89 "Hg
* Reported May 11 5:15 pm — May 26 5:55 pm, Chico. Weather by CustomWeather, © 2017

Note: Actual official high and low records may vary slightly from our data, if they occured in-between our weather recording intervals... More about our weather records

Advertising

Chico Weather History for the Previous 24 Hours

Scroll right to see more
 ConditionsComfort  
Time TempWeatherWind HumidityBarometerVisibility
5:55 pm
Fri, May 26
75 °FSunny.10 mph41%29.94 "Hg10 mi
5:35 pm75 °FSunny.8 mph41%29.94 "Hg10 mi
4:55 pm75 °FSunny.8 mph41%29.94 "Hg10 mi
3:47 pm75 °FPassing clouds.8 mph41%29.94 "Hg10 mi
2:49 pm72 °FPassing clouds.6 mph47%29.94 "Hg10 mi
1:47 pm72 °FPassing clouds.6 mph47%29.95 "Hg10 mi
12:47 pm68 °FPassing clouds.6 mph53%29.96 "Hg10 mi
11:47 am68 °FPassing clouds.7 mph49%29.96 "Hg10 mi
10:58 am66 °FScattered clouds.9 mph52%29.95 "Hg10 mi
9:47 am64 °FScattered clouds.7 mph56%29.95 "Hg10 mi
7:50 am57 °FScattered clouds.6 mph72%29.92 "Hg10 mi
6:50 am55 °FScattered clouds.6 mph77%29.91 "Hg10 mi
5:35 am55 °FClear.No wind77%29.88 "Hg10 mi
5:15 am55 °FClear.5 mph77%29.87 "Hg10 mi
4:55 am55 °FClear.6 mph77%29.87 "Hg10 mi
4:35 am55 °FPassing clouds.3 mph77%29.86 "Hg10 mi
4:15 am55 °FPassing clouds.7 mph77%29.86 "Hg10 mi
3:55 am57 °FClear.7 mph72%29.85 "Hg10 mi
3:35 am57 °FClear.8 mph72%29.85 "Hg10 mi
2:55 am59 °FClear.10 mph68%29.84 "Hg10 mi
2:35 am59 °FClear.9 mph68%29.84 "Hg10 mi
2:15 am59 °FClear.9 mph68%29.84 "Hg10 mi
1:55 am59 °FClear.8 mph68%29.83 "Hg10 mi
1:35 am59 °FClear.7 mph68%29.83 "Hg10 mi
12:55 am61 °FClear.12 mph63%29.82 "Hg10 mi
12:35 am63 °FClear.12 mph59%29.82 "Hg10 mi
12:15 am63 °FClear.13 mph59%29.82 "Hg10 mi
11:55 pm
Thu, May 25
64 °FClear.14 mph56%29.81 "Hg10 mi
11:35 pm64 °FClear.9 mph56%29.80 "Hg10 mi
11:15 pm64 °FClear.8 mph52%29.80 "Hg10 mi
10:55 pm66 °FClear.9 mph52%29.79 "Hg10 mi
10:35 pm66 °FClear.10 mph52%29.78 "Hg10 mi
9:55 pm66 °FClear.12 mph52%29.76 "Hg10 mi
9:35 pm68 °FClear.13 mph49%29.75 "Hg10 mi
9:15 pm68 °FClear.15 mph49%29.75 "Hg10 mi
8:55 pm68 °FClear.13 mph53%29.74 "Hg10 mi
8:35 pm68 °FClear.12 mph53%29.73 "Hg10 mi
8:15 pm70 °FSunny.13 mph50%29.72 "Hg10 mi
7:55 pm72 °FSunny.15 mph47%29.71 "Hg10 mi
7:35 pm72 °FSunny.18 mph47%29.71 "Hg10 mi
7:15 pm72 °FSunny.18 mph47%29.70 "Hg10 mi
Weather by CustomWeather, © 2017

See weather overviewHow to use our weather pages